Zurück zum Katalog

STARLINK-4630

AktivKommunikationSSO
NORAD 53680·PAYLOAD·🇺🇸 United States

Gestartet Aug 31, 2022 von Vandenberg Space Force Base

Loading…

Nächste Überflüge (nächste 24 Stunden)

TLE

AktuellSource: CelesTrak SupGP

Epoche: Sep 15, 2026, 01:24 UTC

1 53680C 22105AJ  26258.05881944  .00081653  00000+0  25353-2 0  2584
2 53680  97.2843 134.9295 0001935  92.4511 220.1184 15.33389682    17

Verfolge STARLINK-4630 in Echtzeit mit AllMySat

Download on the App Store